Weather History for 60230 - February, 2014

Change the Weather History Date:

Thursday, February 6, 2014

  Actual Average Record
Temperature  
Mean Temperature 58 °F -  
Max Temperature 71 °F 68 °F - ()
Min Temperature 44 °F 46 °F - ()
Degree Days  
Heating Degree Days 8    
Growing Degree Days 8 (Base 50)    
Moisture  
Dew Point 49 °F    
Average Humidity 74    
Maximum Humidity 100    
Minimum Humidity 40    
Precipitation  
Precipitation 0.00 in 0.05 in - ()
Sea Level Pressure  
Sea Level Pressure 30.13 in    
Wind  
Wind Speed 4 mph ()    
Max Wind Speed 15 mph    
Max Gust Speed 26 mph    
Visibility 6.0 miles    
Events      
T = Trace of Precipitation, MM = Missing Value Source: Averaged Metar Reports

Daily Weather History Graph

Daily Weather History Graph

Search for Another Location

Airport or City:

Trip Planner

Search our weather history database for the weather conditions in past years. The results will help you decide how hot, cold, wet, or windy it might be!

Date:

Astronomy

Feb. 06, 2014 Rise Set
Actual Time 7:21 AM WET 6:11 PM WET
Civil Twilight 6:56 AM WET 6:36 PM WET
Nautical Twilight 6:27 AM WET 7:05 PM WET
Astronomical Twilight 5:58 AM WET 7:33 PM WET
Moon 11:34 AM WET (2/6) 12:24 AM WET (2/6)
Length of Visible Light 11h 39m
Length of Day
10h 49m
Waxing Crescent, 47% of the Moon is Illuminated
Feb 6
Waxing Crescent
Feb 6
First Quarter
Feb 14
Full
Feb 22
Last Quarter
Mar 1
New

Hourly Weather History & Observations

Time (WET) Temp. Windchill Dew Point Humidity Pressure Visibility Wind Dir Wind Speed Gust Speed Precip Events Conditions
12:00 AM 52 °F - 49 °F 84% 30.16 in 6 mi South 3.5 mph - -  
12:00 AM 51.8 °F - 48.2 °F 88% 30.15 in - South 3.5 mph - N/A   Clear
1:00 AM 50.0 °F - 48.2 °F 94% 30.12 in - ESE 2.3 mph - N/A   Clear
1:30 AM 50.0 °F - 48.2 °F 94% 30.12 in - SE 2.3 mph - N/A   Clear
2:00 AM 50.0 °F - 48.2 °F 94% 30.12 in - ESE 1.2 mph - N/A   Clear
2:30 AM 50.0 °F - 48.2 °F 94% 30.09 in - ESE 2.3 mph - N/A   Clear
3:00 AM 49 °F - 47 °F 92% 30.12 in 6 mi ESE 1.2 mph - -  
3:00 AM 48.2 °F - 48.2 °F 100% 30.09 in - Variable 2.3 mph - N/A   Clear
3:30 AM 48.2 °F - 46.4 °F 93% 30.09 in - ENE 3.5 mph - N/A   Clear
4:00 AM 46.4 °F 44.3 °F 44.6 °F 93% 30.09 in - East 4.6 mph - N/A   Clear
4:30 AM 46.4 °F 43.5 °F 46.4 °F 100% 30.06 in - East 5.8 mph - N/A   Clear
5:00 AM 46.4 °F 44.3 °F 46.4 °F 100% 30.06 in - ENE 4.6 mph - N/A   Clear
5:30 AM 46.4 °F 43.5 °F 46.4 °F 100% 30.06 in - East 5.8 mph - N/A   Clear
6:00 AM 45 °F - 44 °F 92% 30.11 in 6 mi East 4.6 mph - -  
6:00 AM 44.6 °F 42.2 °F 44.6 °F 100% 30.06 in - East 4.6 mph - N/A   Clear
6:30 AM 44.6 °F 43.1 °F 42.8 °F 93% 30.06 in - East 3.5 mph - N/A   Clear
7:00 AM 44.6 °F - 44.6 °F 100% 30.09 in - ESE 2.3 mph - N/A   Clear
7:30 AM 44.6 °F 43.1 °F 44.6 °F 100% 30.09 in - South 3.5 mph - N/A   Clear
8:00 AM 46.4 °F - 46.4 °F 100% 30.12 in - SSW 2.3 mph - N/A   Clear
8:30 AM 51.8 °F - 46.4 °F 82% 30.12 in - SSE 4.6 mph - N/A   Clear
9:00 AM 55.4 °F - 44.6 °F 67% 30.12 in - SE 3.5 mph - N/A   Clear
9:30 AM 59.0 °F - 46.4 °F 63% 30.12 in - Variable 2.3 mph - N/A   Clear
10:00 AM 62.6 °F - 48.2 °F 59% 30.12 in - Variable 2.3 mph - N/A   Clear
10:30 AM 64.4 °F - 48.2 °F 56% 30.12 in - Variable 2.3 mph - N/A   Clear
11:00 AM 66.2 °F - 50.0 °F 56% 30.12 in 3.7 mi North 3.5 mph - N/A   Unknown
11:30 AM 66.2 °F - 50.0 °F 56% 30.12 in 3.7 mi NNW 4.6 mph - N/A   Unknown
12:00 PM 67 °F - 49 °F 42% 30.07 in 6 mi North 3.5 mph - -  
12:00 PM 68.0 °F - 48.2 °F 49% 30.12 in - North 3.5 mph - N/A   Clear
12:30 PM 69.8 °F - 44.6 °F 40% 30.09 in - NNW 4.6 mph - N/A   Clear
1:00 PM 71.6 °F - 48.2 °F 43% 30.09 in - NW 10.4 mph - N/A   Clear
1:30 PM 68.0 °F - 46.4 °F 46% 30.12 in - WNW 15.0 mph - N/A   Clear
2:00 PM 66.2 °F - 50.0 °F 56% 30.12 in - WNW 15.0 mph 26.5 mph N/A   Clear
2:01 PM 66.2 °F - 50.0 °F 56% 30.12 in 6.2 mi WNW 13.8 mph - N/A   Partly Cloudy
2:30 PM 66.2 °F - 51.8 °F 60% 30.12 in 6.2 mi WNW 13.8 mph - N/A   Partly Cloudy
3:00 PM 66 °F - 53 °F 53% 30.10 in 6 mi WNW 12.7 mph - -   Scattered Clouds
3:00 PM 66.2 °F - 53.6 °F 64% 30.12 in 6.2 mi West 11.5 mph - N/A   Partly Cloudy
3:30 PM 66.2 °F - 53.6 °F 64% 30.12 in 6.2 mi WNW 8.1 mph - N/A   Partly Cloudy
4:00 PM 66.2 °F - 51.8 °F 60% 30.12 in 6.2 mi West 9.2 mph - N/A   Partly Cloudy
4:30 PM 66.2 °F - 53.6 °F 64% 30.12 in 6.2 mi West 5.8 mph - N/A   Partly Cloudy
5:00 PM 66.2 °F - 53.6 °F 64% 30.12 in 6.2 mi West 8.1 mph - N/A   Partly Cloudy
5:30 PM 64.4 °F - 51.8 °F 64% 30.12 in 6.2 mi WSW 3.5 mph - N/A   Partly Cloudy
6:00 PM 63 °F - 52 °F 59% 30.13 in 6 mi NW 10.4 mph - -   Scattered Clouds
6:00 PM 62.6 °F - 51.8 °F 68% 30.15 in 6.2 mi WNW 10.4 mph - N/A   Partly Cloudy
6:30 PM 60.8 °F - 51.8 °F 72% 30.15 in 6.2 mi WNW 8.1 mph - N/A   Partly Cloudy
7:00 PM 60.8 °F - 51.8 °F 72% 30.18 in 6.2 mi WNW 6.9 mph - N/A   Partly Cloudy
7:30 PM 60.8 °F - 51.8 °F 72% 30.18 in 6.2 mi WNW 6.9 mph - N/A   Partly Cloudy
8:00 PM 59.0 °F - 50.0 °F 72% 30.18 in 6.2 mi WNW 8.1 mph - N/A   Partly Cloudy
8:30 PM 59.0 °F - 48.2 °F 67% 30.21 in 6.2 mi WNW 8.1 mph - N/A   Scattered Clouds
9:00 PM 57 °F - 49 °F 65% 30.22 in 6 mi West 6.9 mph - -   Partly Cloudy
9:00 PM 57.2 °F - 48.2 °F 72% 30.21 in 6.2 mi West 6.9 mph - N/A   Scattered Clouds
9:30 PM 57.2 °F - 48.2 °F 72% 30.21 in 6.2 mi WSW 3.5 mph - N/A   Scattered Clouds
10:00 PM 55.4 °F - 50.0 °F 82% 30.24 in 6.2 mi SW 3.5 mph - N/A   Scattered Clouds
10:30 PM 57.2 °F - 50.0 °F 77% 30.21 in 6.2 mi SW 4.6 mph - N/A   Scattered Clouds
11:00 PM 57.2 °F - 48.2 °F 72% 30.21 in 6.2 mi SSW 5.8 mph - N/A   Unknown
11:30 PM 57.2 °F - 50.0 °F 77% 30.24 in 6.2 mi West 2.3 mph - N/A   Unknown